This is the latest recevied weather packets stored in our database for station/object NZ3C. If no packets are shown the sender has not sent any weather packets the latest 10 day(s).
| Time | Temp. | Humidity | Pressure | Rain* | Wind** | Luminosity | Snow |
|---|---|---|---|---|---|---|---|
| 1777488038 | 22.78° C | 67% | 1012.2 hPa | 0 mm | - | 319 W/m² | - |
| 1777487735 | 22.78° C | 67% | 1012.3 hPa | 0 mm | - | 325 W/m² | - |
| 1777487433 | 22.78° C | 68% | 1012.3 hPa | 0 mm | - | 303 W/m² | - |
| 1777487130 | 22.78° C | 65% | 1012.5 hPa | 0 mm | - | 325 W/m² | - |
| 1777486826 | 22.78° C | 68% | 1012.5 hPa | 0 mm | - | 454 W/m² | - |
| 1777486524 | 22.78° C | 67% | 1012.6 hPa | 0 mm | - | 599 W/m² | - |
| 1777486221 | 22.22° C | 68% | 1012.8 hPa | 0 mm | - | 354 W/m² | - |
| 1777485919 | 21.67° C | 69% | 1012.7 hPa | 0 mm | - | 374 W/m² | - |
| 1777485614 | 21.67° C | 70% | 1012.7 hPa | 0 mm | - | 486 W/m² | - |
| 1777485309 | 21.67° C | 70% | 1012.8 hPa | 0 mm | - | 232 W/m² | - |
| 1777485006 | 21.67° C | 70% | 1012.9 hPa | 0 mm | - | 340 W/m² | - |
| 1777484704 | 21.67° C | 69% | 1013 hPa | 0 mm | - | 260 W/m² | - |
| 1777484400 | 21.67° C | 71% | 1013.2 hPa | 0 mm | - | 295 W/m² | - |
| 1777484096 | 21.11° C | 71% | 1013 hPa | 0 mm | - | 402 W/m² | - |
| 1777483792 | 21.11° C | 72% | 1013.2 hPa | 0 mm | - | 330 W/m² | - |
| 1777483490 | 21.67° C | 71% | 1013.3 hPa | 0 mm | - | 215 W/m² | - |
| 1777483184 | 21.11° C | 71% | 1013.4 hPa | 0 mm | - | 314 W/m² | - |
| 1777482881 | 21.11° C | 72% | 1013.4 hPa | 0 mm | - | 296 W/m² | - |
| 1777482577 | 21.11° C | 72% | 1013.5 hPa | 0 mm | - | 260 W/m² | - |
| 1777482274 | 21.11° C | 71% | 1013.8 hPa | 0 mm | - | 246 W/m² | - |
| 1777481971 | 20.56° C | 72% | 1013.9 hPa | 0 mm | - | 246 W/m² | - |
| 1777481669 | 20.56° C | 73% | 1014.1 hPa | 0 mm | - | 214 W/m² | - |
| 1777481366 | 20.56° C | 73% | 1014.1 hPa | 0 mm | - | 285 W/m² | - |
| 1777481062 | 20.56° C | 73% | 1014.2 hPa | 0 mm | - | 163 W/m² | - |
| 1777480759 | 20° C | 73% | 1014.3 hPa | 0 mm | - | 133 W/m² | - |
* Rain latest hour (hover to see other rain measurements)
** Current wind speed in m/s (hover to see current wind gust speed)